,,Stat6,,Stat2,,Stat8,,Stat9,,Stat10,,Wind1,,Wind1,
time,status,PA1M_AVG,status,PR1M_SUM,status,RH1M_AVG,status,SR1M_AVG,status,TA1M_AVG,status,W1dAve1m,status,W1sAve1m,
2008-10-17, 00:00:00,VALID,916.983,VALID,0.2,VALID,100,VALID,-0.0169808,VALID,19.5793,VALID,149,VALID,0,
2008-10-17, 00:01:00,VALID,916.966,VALID,0,VALID,100,VALID,0.0169808,VALID,19.5823,VALID,148,VALID,0,
2008-10-17, 00:02:00,VALID,916.946,VALID,0,VALID,100,VALID,0,VALID,19.5823,VALID,164,VALID,0.531994,
2008-10-17, 00:03:00,VALID,916.913,VALID,0,VALID,100,VALID,-0.0339617,VALID,19.5825,VALID,171,VALID,0.493786,
2008-10-17, 00:04:00,VALID,916.888,VALID,0,VALID,100,VALID,-0.0339617,VALID,19.5798,VALID,171,VALID,0.291193,
2008-10-17, 00:05:00,VALID,916.862,VALID,0.2,VALID,100,VALID,-0.101885,VALID,19.5837,VALID,194,VALID,0.343945,
2008-10-17, 00:06:00,VALID,916.833,VALID,0,VALID,100,VALID,-0.101885,VALID,19.5665,VALID,182,VALID,0.200817,
2008-10-17, 00:07:00,VALID,916.821,VALID,0,VALID,100,VALID,-0.101885,VALID,19.5902,VALID,157,VALID,0.302827,
2008-10-17, 00:08:00,VALID,916.798,VALID,0,VALID,100,VALID,-0.101885,VALID,19.5832,VALID,161,VALID,0.0400391,
2008-10-17, 00:09:00,VALID,916.793,VALID,0,VALID,100,VALID,-0.118866,VALID,19.5837,VALID,154,VALID,0.115767,
2008-10-17, 00:10:00,VALID,916.787,VALID,0.2,VALID,100,VALID,-0.0849042,VALID,19.584,VALID,171,VALID,0.0065696,
2008-10-17, 00:11:00,VALID,916.787,VALID,0,VALID,100,VALID,-0.101885,VALID,19.5772,VALID,170,VALID,0.309482,
2008-10-17, 00:12:00,VALID,916.779,VALID,0,VALID,100,VALID,-0.101885,VALID,19.5805,VALID,173,VALID,0.0716146,
2008-10-17, 00:13:00,VALID,916.765,VALID,0,VALID,100,VALID,-0.101885,VALID,19.5802,VALID,180,VALID,0,
2008-10-17, 00:14:00,VALID,916.746,VALID,0,VALID,100,VALID,-0.101885,VALID,19.5775,VALID,169,VALID,0.0399503,
2008-10-17, 00:15:00,VALID,916.729,VALID,0,VALID,100,VALID,-0.101885,VALID,19.5802,VALID,164,VALID,0,
2008-10-17, 00:16:00,VALID,916.73,VALID,0,VALID,100,VALID,-0.118866,VALID,19.5967,VALID,164,VALID,0,
2008-10-17, 00:17:00,VALID,916.721,VALID,0.2,VALID,100,VALID,-0.101885,VALID,19.6099,VALID,164,VALID,0,
2008-10-17, 00:18:00,VALID,916.715,VALID,0,VALID,100,VALID,-0.118866,VALID,19.6067,VALID,164,VALID,0,
2008-10-17, 00:19:00,VALID,916.705,VALID,0,VALID,100,VALID,-0.0509425,VALID,19.6057,VALID,162,VALID,0,
2008-10-17, 00:20:00,VALID,916.684,VALID,0,VALID,100,VALID,0.0169808,VALID,19.5977,VALID,162,VALID,0,
2008-10-17, 00:21:00,VALID,916.674,VALID,0,VALID,100,VALID,0.0339617,VALID,19.6112,VALID,162,VALID,0,
2008-10-17, 00:22:00,VALID,916.67,VALID,0,VALID,100,VALID,0,VALID,19.6177,VALID,162,VALID,0,
2008-10-17, 00:23:00,VALID,916.668,VALID,0.2,VALID,100,VALID,-0.0169808,VALID,19.6179,VALID,162,VALID,0,
2008-10-17, 00:24:00,VALID,916.652,VALID,0,VALID,100,VALID,0.0169808,VALID,19.6277,VALID,162,VALID,0,
2008-10-17, 00:25:00,VALID,916.642,VALID,0,VALID,100,VALID,0.0169808,VALID,19.6409,VALID,162,VALID,0,
2008-10-17, 00:26:00,VALID,916.633,VALID,0,VALID,100,VALID,0,VALID,19.6506,VALID,162,VALID,0,
2008-10-17, 00:27:00,VALID,916.621,VALID,0.2,VALID,100,VALID,-0.0169808,VALID,19.6571,VALID,163,VALID,0,
2008-10-17, 00:28:00,VALID,916.608,VALID,0,VALID,100,VALID,0,VALID,19.6634,VALID,164,VALID,0,
2008-10-17, 00:29:00,VALID,916.595,VALID,0,VALID,100,VALID,0,VALID,19.6701,VALID,164,VALID,0,
2008-10-17, 00:30:00,VALID,916.595,VALID,0.2,VALID,100,VALID,0,VALID,19.6666,VALID,164,VALID,0,
2008-10-17, 00:31:00,VALID,916.578,VALID,0,VALID,100,VALID,0.0169808,VALID,19.6571,VALID,164,VALID,0,
2008-10-17, 00:32:00,VALID,916.56,VALID,0,VALID,100,VALID,-0.0169808,VALID,19.6506,VALID,164,VALID,0,
2008-10-17, 00:33:00,VALID,916.538,VALID,0,VALID,100,VALID,0,VALID,19.6312,VALID,164,VALID,0,
2008-10-17, 00:34:00,VALID,916.506,VALID,0.2,VALID,100,VALID,0,VALID,19.6277,VALID,164,VALID,0,
2008-10-17, 00:35:00,VALID,916.498,VALID,0,VALID,100,VALID,0.0169808,VALID,19.6404,VALID,165,VALID,0.00186012,
2008-10-17, 00:36:00,VALID,916.476,VALID,0,VALID,100,VALID,0,VALID,19.6242,VALID,131,VALID,0.000372024,
2008-10-17, 00:37:00,VALID,916.45,VALID,0.2,VALID,100,VALID,0,VALID,19.6077,VALID,131,VALID,0,
2008-10-17, 00:38:00,VALID,916.436,VALID,0,VALID,100,VALID,0,VALID,19.6147,VALID,131,VALID,0,
2008-10-17, 00:39:00,VALID,916.407,VALID,0,VALID,100,VALID,0,VALID,19.6207,VALID,131,VALID,0,
2008-10-17, 00:40:00,VALID,916.381,VALID,0.2,VALID,100,VALID,0.0169808,VALID,19.6272,VALID,131,VALID,0,
2008-10-17, 00:41:00,VALID,916.345,VALID,0,VALID,100,VALID,0,VALID,19.6105,VALID,129,VALID,0,
2008-10-17, 00:42:00,VALID,916.328,VALID,0,VALID,100,VALID,0,VALID,19.6342,VALID,75,VALID,0,
2008-10-17, 00:43:00,VALID,916.311,VALID,0.2,VALID,100,VALID,0,VALID,19.6247,VALID,75,VALID,0,
2008-10-17, 00:44:00,VALID,916.28,VALID,0,VALID,100,VALID,0,VALID,19.6272,VALID,75,VALID,0,
2008-10-17, 00:45:00,VALID,916.266,VALID,0,VALID,100,VALID,0,VALID,19.6237,VALID,78,VALID,0,
2008-10-17, 00:46:00,VALID,916.24,VALID,0.2,VALID,100,VALID,0,VALID,19.6182,VALID,83,VALID,0,
2008-10-17, 00:47:00,VALID,916.233,VALID,0,VALID,100,VALID,-0.0169808,VALID,19.6085,VALID,160,VALID,0.0804332,
2008-10-17, 00:48:00,VALID,916.209,VALID,0,VALID,100,VALID,0,VALID,19.6015,VALID,157,VALID,0.344512,
2008-10-17, 00:49:00,VALID,916.201,VALID,0.2,VALID,100,VALID,0,VALID,19.5982,VALID,173,VALID,1.06079,
2008-10-17, 00:50:00,VALID,916.198,VALID,0,VALID,100,VALID,-0.0169808,VALID,19.5887,VALID,162,VALID,0.183308,
2008-10-17, 00:51:00,VALID,916.176,VALID,0.2,VALID,100,VALID,-0.0339617,VALID,19.5885,VALID,181,VALID,0.0107887,
2008-10-17, 00:52:00,VALID,916.155,VALID,0,VALID,100,VALID,-0.0339617,VALID,19.5887,VALID,188,VALID,0.00390625,
2008-10-17, 00:53:00,VALID,916.151,VALID,0,VALID,100,VALID,-0.0339617,VALID,19.602,VALID,172,VALID,0,
2008-10-17, 00:54:00,VALID,916.132,VALID,0.2,VALID,100,VALID,0,VALID,19.5987,VALID,177,VALID,0,
2008-10-17, 00:55:00,VALID,916.121,VALID,0,VALID,100,VALID,-0.0339617,VALID,19.582,VALID,168,VALID,0.143787,
2008-10-17, 00:56:00,VALID,916.105,VALID,0,VALID,100,VALID,-0.0339617,VALID,19.5952,VALID,178,VALID,0.611793,
2008-10-17, 00:57:00,VALID,916.101,VALID,0.2,VALID,100,VALID,-0.0169808,VALID,19.5823,VALID,177,VALID,1.20108,
2008-10-17, 00:58:00,VALID,916.094,VALID,0,VALID,100,VALID,0,VALID,19.579,VALID,176,VALID,0.724746,
2008-10-17, 00:59:00,VALID,916.065,VALID,0,VALID,100,VALID,-0.0169808,VALID,19.572,VALID,185,VALID,0.800305,
2008-10-17, 01:00:00,VALID,916.051,VALID,0.2,VALID,100,VALID,0,VALID,19.566,VALID,173,VALID,0.892987,
2008-10-17, 01:01:00,VALID,916.02,VALID,0,VALID,100,VALID,0,VALID,19.5526,VALID,167,VALID,0.223474,
2008-10-17, 01:02:00,VALID,916,VALID,0,VALID,100,VALID,0,VALID,19.5463,VALID,174,VALID,0.684593,
2008-10-17, 01:03:00,VALID,915.986,VALID,0,VALID,100,VALID,0.0169808,VALID,19.5199,VALID,174,VALID,1.06582,
2008-10-17, 01:04:00,VALID,915.977,VALID,0.2,VALID,100,VALID,-0.0169808,VALID,19.5039,VALID,177,VALID,0.244731,
2008-10-17, 01:05:00,VALID,915.947,VALID,0,VALID,100,VALID,0,VALID,19.4819,VALID,174,VALID,0.588844,
2008-10-17, 01:06:00,VALID,915.938,VALID,0,VALID,100,VALID,0,VALID,19.4784,VALID,173,VALID,0.615327,
2008-10-17, 01:07:00,VALID,915.931,VALID,0.2,VALID,100,VALID,0.0339617,VALID,19.4685,VALID,176,VALID,1.03999,
2008-10-17, 01:08:00,VALID,915.907,VALID,0,VALID,100,VALID,0,VALID,19.4655,VALID,178,VALID,0.855646,
2008-10-17, 01:09:00,VALID,915.888,VALID,0,VALID,100,VALID,0,VALID,19.4522,VALID,172,VALID,1.21094,
2008-10-17, 01:10:00,VALID,915.866,VALID,0,VALID,100,VALID,0,VALID,19.4355,VALID,169,VALID,0.467685,
2008-10-17, 01:11:00,VALID,915.855,VALID,0.2,VALID,100,VALID,0.0169808,VALID,19.4221,VALID,179,VALID,0.939258,
2008-10-17, 01:12:00,VALID,915.842,VALID,0,VALID,100,VALID,0,VALID,19.4028,VALID,172,VALID,0.978198,
2008-10-17, 01:13:00,VALID,915.819,VALID,0,VALID,100,VALID,-0.0169808,VALID,19.4068,VALID,161,VALID,0.962891,
2008-10-17, 01:14:00,VALID,915.813,VALID,0,VALID,100,VALID,0.0169808,VALID,19.4003,VALID,175,VALID,0.432958,
2008-10-17, 01:15:00,VALID,915.798,VALID,0.2,VALID,100,VALID,0,VALID,19.3966,VALID,156,VALID,0.0418527,
2008-10-17, 01:16:00,VALID,915.779,VALID,0,VALID,100,VALID,0,VALID,19.4066,VALID,147,VALID,0,
2008-10-17, 01:17:00,VALID,915.764,VALID,0,VALID,100,VALID,0,VALID,19.4001,VALID,158,VALID,0.640253,
2008-10-17, 01:18:00,VALID,915.753,VALID,0,VALID,100,VALID,0,VALID,19.4003,VALID,169,VALID,0.473336,
2008-10-17, 01:19:00,VALID,915.728,VALID,0,VALID,100,VALID,-0.0339617,VALID,19.3941,VALID,171,VALID,0.0783067,
2008-10-17, 01:20:00,VALID,915.713,VALID,0,VALID,100,VALID,-0.0509425,VALID,19.3983,VALID,167,VALID,0.339753,
2008-10-17, 01:21:00,VALID,915.699,VALID,0.2,VALID,100,VALID,-0.101885,VALID,19.3916,VALID,174,VALID,0.916788,
2008-10-17, 01:22:00,VALID,915.689,VALID,0,VALID,100,VALID,-0.0849042,VALID,19.3784,VALID,169,VALID,0.407158,
2008-10-17, 01:23:00,VALID,915.673,VALID,0,VALID,100,VALID,-0.0849042,VALID,19.3788,VALID,182,VALID,0.412016,
2008-10-17, 01:24:00,VALID,915.658,VALID,0,VALID,100,VALID,-0.0849042,VALID,19.3788,VALID,177,VALID,0,
2008-10-17, 01:25:00,VALID,915.633,VALID,0,VALID,100,VALID,-0.101885,VALID,19.3751,VALID,165,VALID,0,
2008-10-17, 01:26:00,VALID,915.624,VALID,0,VALID,100,VALID,-0.0509425,VALID,19.3716,VALID,152,VALID,0,
2008-10-17, 01:27:00,VALID,915.615,VALID,0.2,VALID,100,VALID,-0.0679233,VALID,19.3686,VALID,152,VALID,0,
2008-10-17, 01:28:00,VALID,915.597,VALID,0,VALID,100,VALID,-0.101885,VALID,19.3651,VALID,152,VALID,0,
2008-10-17, 01:29:00,VALID,915.578,VALID,0,VALID,100,VALID,-0.0679233,VALID,19.3619,VALID,164,VALID,0.0759448,
2008-10-17, 01:30:00,VALID,915.57,VALID,0,VALID,100,VALID,-0.0509425,VALID,19.3522,VALID,169,VALID,0.43006,
2008-10-17, 01:31:00,VALID,915.551,VALID,0,VALID,100,VALID,-0.0169808,VALID,19.3489,VALID,186,VALID,0,
2008-10-17, 01:32:00,VALID,915.532,VALID,0,VALID,100,VALID,-0.0509425,VALID,19.3462,VALID,183,VALID,0,
2008-10-17, 01:33:00,VALID,915.506,VALID,0,VALID,100,VALID,-0.0509425,VALID,19.3359,VALID,173,VALID,0,
2008-10-17, 01:34:00,VALID,915.501,VALID,0,VALID,100,VALID,-0.0849042,VALID,19.3234,VALID,176,VALID,0,
2008-10-17, 01:35:00,VALID,915.476,VALID,0.2,VALID,100,VALID,-0.0849042,VALID,19.3304,VALID,176,VALID,0.0684956,
2008-10-17, 01:36:00,VALID,915.462,VALID,0,VALID,100,VALID,-0.118866,VALID,19.3339,VALID,176,VALID,0.107515,
2008-10-17, 01:37:00,VALID,915.446,VALID,0,VALID,100,VALID,-0.135847,VALID,19.3342,VALID,185,VALID,0.886446,
2008-10-17, 01:38:00,VALID,915.436,VALID,0,VALID,100,VALID,-0.101885,VALID,19.3339,VALID,177,VALID,0.210737,
2008-10-17, 01:39:00,VALID,915.407,VALID,0,VALID,100,VALID,-0.101885,VALID,19.3372,VALID,167,VALID,0,
2008-10-17, 01:40:00,VALID,915.385,VALID,0,VALID,100,VALID,-0.101885,VALID,19.3364,VALID,167,VALID,0,
2008-10-17, 01:41:00,VALID,915.367,VALID,0,VALID,100,VALID,-0.118866,VALID,19.3466,VALID,170,VALID,0,
2008-10-17, 01:42:00,VALID,915.347,VALID,0,VALID,100,VALID,-0.118866,VALID,19.3436,VALID,180,VALID,0,
2008-10-17, 01:43:00,VALID,915.338,VALID,0,VALID,100,VALID,-0.118866,VALID,19.3469,VALID,179,VALID,0,
2008-10-17, 01:44:00,VALID,915.32,VALID,0,VALID,100,VALID,-0.101885,VALID,19.3364,VALID,179,VALID,0,
2008-10-17, 01:45:00,VALID,915.325,VALID,0,VALID,100,VALID,-0.101885,VALID,19.3434,VALID,179,VALID,0,
2008-10-17, 01:46:00,VALID,915.312,VALID,0,VALID,100,VALID,-0.101885,VALID,19.3436,VALID,179,VALID,0,
2008-10-17, 01:47:00,VALID,915.299,VALID,0,VALID,100,VALID,-0.101885,VALID,19.3404,VALID,179,VALID,0,
2008-10-17, 01:48:00,VALID,915.273,VALID,0.2,VALID,100,VALID,-0.101885,VALID,19.3501,VALID,179,VALID,0,
2008-10-17, 01:49:00,VALID,915.262,VALID,0,VALID,100,VALID,-0.0679233,VALID,19.3264,VALID,179,VALID,0,
2008-10-17, 01:50:00,VALID,915.242,VALID,0,VALID,100,VALID,0.0169808,VALID,19.3187,VALID,179,VALID,0,
2008-10-17, 01:51:00,VALID,915.215,VALID,0,VALID,100,VALID,0,VALID,19.3419,VALID,179,VALID,0,
2008-10-17, 01:52:00,VALID,915.191,VALID,0,VALID,100,VALID,0.0169808,VALID,19.3252,VALID,152,VALID,0,
2008-10-17, 01:53:00,VALID,915.171,VALID,0,VALID,100,VALID,0,VALID,19.322,VALID,127,VALID,0,
2008-10-17, 01:54:00,VALID,915.151,VALID,0,VALID,100,VALID,-0.0169808,VALID,19.3125,VALID,127,VALID,0,
2008-10-17, 01:55:00,VALID,915.134,VALID,0,VALID,100,VALID,0,VALID,19.3257,VALID,127,VALID,0,
2008-10-17, 01:56:00,VALID,915.126,VALID,0,VALID,100,VALID,0,VALID,19.3322,VALID,127,VALID,0,
2008-10-17, 01:57:00,VALID,915.109,VALID,0,VALID,100,VALID,-0.0169808,VALID,19.335,VALID,127,VALID,0,
2008-10-17, 01:58:00,VALID,915.094,VALID,0,VALID,100,VALID,-0.0169808,VALID,19.3125,VALID,127,VALID,0,
2008-10-17, 01:59:00,VALID,915.087,VALID,0,VALID,100,VALID,0,VALID,19.2831,VALID,127,VALID,0,
2008-10-17, 02:00:00,VALID,915.075,VALID,0,VALID,100,VALID,0,VALID,19.2805,VALID,127,VALID,0,
2008-10-17, 02:01:00,VALID,915.061,VALID,0,VALID,100,VALID,-0.0169808,VALID,19.2865,VALID,127,VALID,0,
2008-10-17, 02:02:00,VALID,915.036,VALID,0,VALID,100,VALID,0.0169808,VALID,19.2833,VALID,127,VALID,0,
2008-10-17, 02:03:00,VALID,915.012,VALID,0,VALID,100,VALID,0,VALID,19.2798,VALID,127,VALID,0,
2008-10-17, 02:04:00,VALID,914.998,VALID,0,VALID,100,VALID,0,VALID,19.2706,VALID,127,VALID,0,
2008-10-17, 02:05:00,VALID,914.97,VALID,0,VALID,100,VALID,0.0169808,VALID,19.2701,VALID,127,VALID,0,
2008-10-17, 02:06:00,VALID,914.936,VALID,0,VALID,100,VALID,0,VALID,19.2766,VALID,127,VALID,0,
2008-10-17, 02:07:00,VALID,914.915,VALID,0,VALID,100,VALID,0.0339617,VALID,19.28,VALID,127,VALID,0,
2008-10-17, 02:08:00,VALID,914.903,VALID,0,VALID,100,VALID,0,VALID,19.2666,VALID,127,VALID,0,
2008-10-17, 02:09:00,VALID,914.897,VALID,0,VALID,100,VALID,-0.0169808,VALID,19.2673,VALID,127,VALID,0,
2008-10-17, 02:10:00,VALID,914.878,VALID,0,VALID,100,VALID,0.0169808,VALID,19.2543,VALID,127,VALID,0,
2008-10-17, 02:11:00,VALID,914.879,VALID,0,VALID,100,VALID,-0.0169808,VALID,19.2414,VALID,96,VALID,0,
2008-10-17, 02:12:00,VALID,914.873,VALID,0,VALID,100,VALID,-0.0169808,VALID,19.2284,VALID,76,VALID,0,
2008-10-17, 02:13:00,VALID,914.86,VALID,0,VALID,100,VALID,0,VALID,19.2184,VALID,70,VALID,0,
2008-10-17, 02:14:00,VALID,914.857,VALID,0,VALID,100,VALID,0,VALID,19.2124,VALID,62,VALID,0,
2008-10-17, 02:15:00,VALID,914.854,VALID,0,VALID,100,VALID,0,VALID,19.1987,VALID,62,VALID,0,
2008-10-17, 02:16:00,VALID,914.835,VALID,0,VALID,100,VALID,0,VALID,19.2024,VALID,61,VALID,0,
2008-10-17, 02:17:00,VALID,914.828,VALID,0,VALID,100,VALID,0,VALID,19.2054,VALID,61,VALID,0,
2008-10-17, 02:18:00,VALID,914.816,VALID,0,VALID,100,VALID,0,VALID,19.205,VALID,61,VALID,0,
2008-10-17, 02:19:00,VALID,914.802,VALID,0,VALID,100,VALID,0.0169808,VALID,19.202,VALID,62,VALID,0,
2008-10-17, 02:20:00,VALID,914.812,VALID,0,VALID,100,VALID,0.0339617,VALID,19.1887,VALID,62,VALID,0,
2008-10-17, 02:21:00,VALID,914.801,VALID,0,VALID,100,VALID,0.0169808,VALID,19.1688,VALID,62,VALID,0,
2008-10-17, 02:22:00,VALID,914.814,VALID,0,VALID,100,VALID,0,VALID,19.1695,VALID,62,VALID,0,
2008-10-17, 02:23:00,VALID,914.795,VALID,0,VALID,100,VALID,0.0169808,VALID,19.1598,VALID,62,VALID,0,
2008-10-17, 02:24:00,VALID,914.793,VALID,0,VALID,100,VALID,0,VALID,19.1505,VALID,62,VALID,0,
2008-10-17, 02:25:00,VALID,914.789,VALID,0,VALID,100,VALID,-0.0169808,VALID,19.147,VALID,62,VALID,0,
2008-10-17, 02:26:00,VALID,914.762,VALID,0,VALID,100,VALID,0.0169808,VALID,19.1273,VALID,69,VALID,0,
2008-10-17, 02:27:00,VALID,914.752,VALID,0,VALID,100,VALID,0,VALID,19.1505,VALID,77,VALID,0,
2008-10-17, 02:28:00,VALID,914.737,VALID,0,VALID,100,VALID,0,VALID,19.1403,VALID,75,VALID,0,
2008-10-17, 02:29:00,VALID,914.731,VALID,0,VALID,100,VALID,0,VALID,19.1368,VALID,72,VALID,0,
2008-10-17, 02:30:00,VALID,914.702,VALID,0,VALID,100,VALID,0.0169808,VALID,19.1336,VALID,72,VALID,0,
2008-10-17, 02:31:00,VALID,914.697,VALID,0,VALID,100,VALID,0.0169808,VALID,19.1236,VALID,72,VALID,0,
2008-10-17, 02:32:00,VALID,914.676,VALID,0,VALID,100,VALID,0,VALID,19.1209,VALID,72,VALID,0,
2008-10-17, 02:33:00,VALID,914.658,VALID,0,VALID,100,VALID,0,VALID,19.1311,VALID,72,VALID,0,
2008-10-17, 02:34:00,VALID,914.638,VALID,0,VALID,100,VALID,0.0339617,VALID,19.1206,VALID,71,VALID,0,
2008-10-17, 02:35:00,VALID,914.631,VALID,0,VALID,100,VALID,0,VALID,19.1303,VALID,79,VALID,0,
2008-10-17, 02:36:00,VALID,914.622,VALID,0,VALID,100,VALID,0.0339617,VALID,19.1146,VALID,79,VALID,0,
2008-10-17, 02:37:00,VALID,914.614,VALID,0,VALID,100,VALID,0,VALID,19.1148,VALID,82,VALID,0,
2008-10-17, 02:38:00,VALID,914.613,VALID,0,VALID,100,VALID,0,VALID,19.1116,VALID,91,VALID,0,
2008-10-17, 02:39:00,VALID,914.609,VALID,0,VALID,100,VALID,-0.0169808,VALID,19.0954,VALID,91,VALID,0,
2008-10-17, 02:40:00,VALID,914.604,VALID,0,VALID,100,VALID,-0.0169808,VALID,19.0792,VALID,92,VALID,0,
2008-10-17, 02:41:00,VALID,914.612,VALID,0,VALID,100,VALID,0,VALID,19.0824,VALID,92,VALID,0,
2008-10-17, 02:42:00,VALID,914.603,VALID,0,VALID,100,VALID,0,VALID,19.0852,VALID,94,VALID,0,
2008-10-17, 02:43:00,VALID,914.599,VALID,0,VALID,100,VALID,0,VALID,19.0889,VALID,100,VALID,0,
2008-10-17, 02:44:00,VALID,914.606,VALID,0,VALID,100,VALID,-0.0169808,VALID,19.0822,VALID,111,VALID,0,
2008-10-17, 02:45:00,VALID,914.595,VALID,0,VALID,100,VALID,-0.0169808,VALID,19.1016,VALID,119,VALID,0,
2008-10-17, 02:46:00,VALID,914.593,VALID,0,VALID,100,VALID,-0.0169808,VALID,19.0849,VALID,121,VALID,0,
2008-10-17, 02:47:00,VALID,914.601,VALID,0,VALID,100,VALID,0,VALID,19.0984,VALID,145,VALID,0,
2008-10-17, 02:48:00,VALID,914.587,VALID,0,VALID,100,VALID,-0.0169808,VALID,19.1118,VALID,151,VALID,0,
2008-10-17, 02:49:00,VALID,914.603,VALID,0,VALID,100,VALID,-0.0339617,VALID,19.1251,VALID,148,VALID,0,
2008-10-17, 02:50:00,VALID,914.619,VALID,0,VALID,100,VALID,0,VALID,19.1343,VALID,145,VALID,0,
2008-10-17, 02:51:00,VALID,914.627,VALID,0,VALID,100,VALID,0,VALID,19.1241,VALID,149,VALID,0,
2008-10-17, 02:52:00,VALID,914.647,VALID,0,VALID,100,VALID,0.0169808,VALID,19.1376,VALID,149,VALID,0,
2008-10-17, 02:53:00,VALID,914.652,VALID,0,VALID,100,VALID,0,VALID,19.151,VALID,150,VALID,0,
2008-10-17, 02:54:00,VALID,914.653,VALID,0,VALID,100,VALID,0,VALID,19.1508,VALID,157,VALID,0,
2008-10-17, 02:55:00,VALID,914.664,VALID,0,VALID,100,VALID,0,VALID,19.1573,VALID,160,VALID,0,
2008-10-17, 02:56:00,VALID,914.664,VALID,0,VALID,100,VALID,0,VALID,19.1568,VALID,160,VALID,0,
2008-10-17, 02:57:00,VALID,914.676,VALID,0,VALID,100,VALID,0,VALID,19.157,VALID,161,VALID,0,
2008-10-17, 02:58:00,VALID,914.671,VALID,0,VALID,100,VALID,-0.0169808,VALID,19.1735,VALID,162,VALID,0,
2008-10-17, 02:59:00,VALID,914.681,VALID,0,VALID,100,VALID,0,VALID,19.18,VALID,162,VALID,0,
2008-10-17, 03:00:00,VALID,914.694,VALID,0,VALID,100,VALID,0,VALID,19.183,VALID,161,VALID,0,
2008-10-17, 03:01:00,VALID,914.687,VALID,0,VALID,100,VALID,-0.0339617,VALID,19.1767,VALID,160,VALID,0,
2008-10-17, 03:02:00,VALID,914.68,VALID,0,VALID,100,VALID,0.0169808,VALID,19.1698,VALID,152,VALID,0,
2008-10-17, 03:03:00,VALID,914.699,VALID,0,VALID,100,VALID,0,VALID,19.1802,VALID,153,VALID,0,
2008-10-17, 03:04:00,VALID,914.694,VALID,0,VALID,100,VALID,0,VALID,19.18,VALID,151,VALID,0,
2008-10-17, 03:05:00,VALID,914.688,VALID,0,VALID,100,VALID,0,VALID,19.17,VALID,151,VALID,0,
2008-10-17, 03:06:00,VALID,914.681,VALID,0,VALID,100,VALID,-0.0339617,VALID,19.1737,VALID,151,VALID,0,
2008-10-17, 03:07:00,VALID,914.681,VALID,0,VALID,100,VALID,0,VALID,19.1665,VALID,151,VALID,0,
2008-10-17, 03:08:00,VALID,914.666,VALID,0,VALID,100,VALID,-0.0169808,VALID,19.1732,VALID,144,VALID,1.09535,
2008-10-17, 03:09:00,VALID,914.648,VALID,0,VALID,100,VALID,0.0169808,VALID,19.1695,VALID,135,VALID,0.909375,
2008-10-17, 03:10:00,VALID,914.632,VALID,0,VALID,100,VALID,-0.0339617,VALID,19.1698,VALID,137,VALID,0.153232,
2008-10-17, 03:11:00,VALID,914.647,VALID,0,VALID,100,VALID,0.0169808,VALID,19.1795,VALID,156,VALID,0.679874,
2008-10-17, 03:12:00,VALID,914.633,VALID,0,VALID,100,VALID,-0.0169808,VALID,19.1862,VALID,148,VALID,0.921342,
2008-10-17, 03:13:00,VALID,914.624,VALID,0,VALID,100,VALID,0,VALID,19.1725,VALID,142,VALID,0.0451601,
2008-10-17, 03:14:00,VALID,914.629,VALID,0,VALID,100,VALID,0.0169808,VALID,19.1865,VALID,153,VALID,0.262607,
2008-10-17, 03:15:00,VALID,914.628,VALID,0,VALID,100,VALID,0,VALID,19.1827,VALID,163,VALID,0.468568,
2008-10-17, 03:16:00,VALID,914.629,VALID,0,VALID,100,VALID,-0.0169808,VALID,19.1792,VALID,152,VALID,0.480373,
2008-10-17, 03:17:00,VALID,914.624,VALID,0,VALID,100,VALID,0,VALID,19.1762,VALID,155,VALID,0.314453,
2008-10-17, 03:18:00,VALID,914.618,VALID,0,VALID,100,VALID,0,VALID,19.1857,VALID,153,VALID,0.786156,
2008-10-17, 03:19:00,VALID,914.6,VALID,0,VALID,100,VALID,0.0339617,VALID,19.1723,VALID,156,VALID,0.949777,
2008-10-17, 03:20:00,VALID,914.594,VALID,0,VALID,100,VALID,0,VALID,19.1755,VALID,149,VALID,0.710029,
2008-10-17, 03:21:00,VALID,914.592,VALID,0,VALID,100,VALID,-0.0169808,VALID,19.176,VALID,148,VALID,0.992374,
2008-10-17, 03:22:00,VALID,914.599,VALID,0,VALID,100,VALID,0,VALID,19.1795,VALID,155,VALID,0.949574,
2008-10-17, 03:23:00,VALID,914.591,VALID,0,VALID,100,VALID,-0.0169808,VALID,19.1865,VALID,162,VALID,0.77397,
2008-10-17, 03:24:00,VALID,914.583,VALID,0,VALID,100,VALID,-0.0169808,VALID,19.1728,VALID,160,VALID,0.981468,
2008-10-17, 03:25:00,VALID,914.57,VALID,0,VALID,100,VALID,0,VALID,19.1827,VALID,156,VALID,0.254167,
2008-10-17, 03:26:00,VALID,914.563,VALID,0,VALID,100,VALID,0,VALID,19.1927,VALID,152,VALID,0.239901,
2008-10-17, 03:27:00,VALID,914.576,VALID,0,VALID,100,VALID,0,VALID,19.1897,VALID,149,VALID,1.0221,
2008-10-17, 03:28:00,VALID,914.583,VALID,0,VALID,100,VALID,-0.0339617,VALID,19.1792,VALID,155,VALID,1.0959,
2008-10-17, 03:29:00,VALID,914.588,VALID,0,VALID,100,VALID,-0.0169808,VALID,19.1797,VALID,147,VALID,0.93843,
2008-10-17, 03:30:00,VALID,914.588,VALID,0,VALID,100,VALID,-0.0169808,VALID,19.1762,VALID,154,VALID,1.11756,
2008-10-17, 03:31:00,VALID,914.574,VALID,0,VALID,100,VALID,0,VALID,19.183,VALID,158,VALID,0.899581,
2008-10-17, 03:32:00,VALID,914.571,VALID,0,VALID,100,VALID,-0.0339617,VALID,19.1735,VALID,138,VALID,1.02292,
2008-10-17, 03:33:00,VALID,914.564,VALID,0,VALID,100,VALID,-0.0339617,VALID,19.1732,VALID,146,VALID,1.10956,
2008-10-17, 03:34:00,VALID,914.569,VALID,0,VALID,100,VALID,-0.0339617,VALID,19.177,VALID,154,VALID,1.44371,
2008-10-17, 03:35:00,VALID,914.573,VALID,0,VALID,100,VALID,-0.0339617,VALID,19.17,VALID,157,VALID,1.26563,
2008-10-17, 03:36:00,VALID,914.564,VALID,0,VALID,100,VALID,0,VALID,19.1732,VALID,156,VALID,1.45543,
2008-10-17, 03:37:00,VALID,914.566,VALID,0,VALID,100,VALID,0.0169808,VALID,19.1693,VALID,162,VALID,1.13662,
2008-10-17, 03:38:00,VALID,914.578,VALID,0,VALID,100,VALID,-0.0169808,VALID,19.1728,VALID,158,VALID,1.37138,
2008-10-17, 03:39:00,VALID,914.569,VALID,0,VALID,100,VALID,-0.0169808,VALID,19.1827,VALID,154,VALID,1.22161,
2008-10-17, 03:40:00,VALID,914.556,VALID,0,VALID,100,VALID,0,VALID,19.173,VALID,163,VALID,1.48828,
2008-10-17, 03:41:00,VALID,914.552,VALID,0,VALID,100,VALID,0,VALID,19.1762,VALID,154,VALID,1.20967,
2008-10-17, 03:42:00,VALID,914.549,VALID,0,VALID,100,VALID,-0.0169808,VALID,19.1628,VALID,155,VALID,0.994474,
2008-10-17, 03:43:00,VALID,914.535,VALID,0,VALID,100,VALID,-0.0169808,VALID,19.1698,VALID,147,VALID,1.11914,
2008-10-17, 03:44:00,VALID,914.52,VALID,0,VALID,100,VALID,-0.0169808,VALID,19.1668,VALID,143,VALID,1.39205,
2008-10-17, 03:45:00,VALID,914.495,VALID,0,VALID,100,VALID,-0.0339617,VALID,19.1633,VALID,142,VALID,1.17695,
2008-10-17, 03:46:00,VALID,914.5,VALID,0,VALID,100,VALID,0,VALID,19.1568,VALID,157,VALID,1.09109,
2008-10-17, 03:47:00,VALID,914.485,VALID,0,VALID,100,VALID,-0.0339617,VALID,19.1728,VALID,146,VALID,1.00332,
2008-10-17, 03:48:00,VALID,914.476,VALID,0,VALID,100,VALID,-0.0339617,VALID,19.1668,VALID,148,VALID,1.35447,
2008-10-17, 03:49:00,VALID,914.479,VALID,0,VALID,100,VALID,0,VALID,19.1633,VALID,147,VALID,1.43677,
2008-10-17, 03:50:00,VALID,914.492,VALID,0,VALID,100,VALID,-0.0169808,VALID,19.1695,VALID,152,VALID,0.786966,